sat.trackr.live / text

‹ back to catalog

HULIANWANG DIGUI-148

NORAD 67524 · 2026-013C

PAYLOAD ACTIVE UNKNOWN

§ Identity

Operator
Country
PRC
Launch date
2026-01-19
Launch site
WSC
Launch vehicle
Mass (kg)
RCS (m²)

External: N2YO · Heavens-Above · Gunter

§ Orbital elements

Epoch: 2026-05-25T01:29:30.840864Z

Period
108.33 min
Inclination
50.0092°
Eccentricity
0.0000902
Mean motion
13.29329608 rev/d
Perigee alt
1,148.6 km
Apogee alt
1,150.0 km
Semi-major
7,527.4 km
B*
7.3278e-5
RAAN
78.6917°
Arg perigee
26.3059°
Mean anomaly
333.7859°
Rev number
1,697

§ Raw data

HULIANWANG DIGUI-1481 67524U 26013C   26145.06216251 -.00000090  00000+0  73278-4 0  99972 67524  50.0092  78.6917 0000902  26.3059 333.7859 13.29329608 16970

JSON: /api/v1/satellites/67524 · /tle

For live sub-satellite position, see the globe view (requires WebGL).

§ Visibility from observer

Set your observer location to see the next 7 days of passes ≥ 10°. The values pass through the URL so the page stays shareable.

No JS? Fill the form by hand. The geolocation button needs JavaScript.